Regional Weather Roundup
Issued by NWS

Home | Current Version | Previous Version | Graphics & Text | Print | Product List | Glossary Off
Versions: 1 2 3 4 5 6 7 8 9 10 11 12 13 14 15 16 17 18 19 20 21 22 23 24 25 26 27 28 29 30 31 32 33 34 35 36 37 38 39 40 41 42 43 44 45 46 47 48 49 50

000
ASUS43 KTOP 031159
RWRKS

WEATHER ROUNDUP FOR KANSAS
NATIONAL WEATHER SERVICE GOODLAND KS
600 AM CST TUE MAR 03 2015

NOTE:  "FAIR" INDICATES FEW OR NO CLOUDS BELOW 12,000 FEET WITH NO
SIGNIFICANT WEATHER AND/OR OBSTRUCTIONS TO VISIBILITY.

KSZ001>006-013>018-027>032-041>047-031300-
NORTHWEST KANSAS

CITY           SKY/WX    TMP DP  RH WIND       PRES   REMARKS
GOODLAND       CLOUDY    30  28  92 NW14G21   29.64R WCI  19
6HR MIN TEMP:  30; 6HR MAX TEMP:  40;

HAYS           MOCLDY    37  27  65 SW7       29.61F
HILL CITY      CLOUDY    31  28  89 NW14      29.63R WCI  21
6HR MIN TEMP:  30; 6HR MAX TEMP:  38;

RUSSELL        MOCLDY    36  32  85 S12       29.60F WCI  28
6HR MIN TEMP:  30; 6HR MAX TEMP:  38;

$$

KSZ061>065-074>080-084>089-031300-
SOUTHWEST KANSAS

CITY           SKY/WX    TMP DP  RH WIND       PRES   REMARKS
DODGE CITY     CLOUDY    37  32  82 SW18G28   29.68R WCI  27
6HR MIN TEMP:  34; 6HR MAX TEMP:  39;

ELKHART          N/A     36  28  73 SW12        N/A  WCI  28
GARDEN CITY    CLOUDY    37  34  89 SW6       29.65R
6HR MIN TEMP:  34; 6HR MAX TEMP:  38;

GREAT BEND     CLOUDY    37  30  75 SW15G22   29.65F WCI  28
LIBERAL        CLOUDY    37  34  87 SW18      29.74R WCI  27
$$

KSZ066>073-081>083-090>101-031300-
SOUTHEAST KANSAS

CITY           SKY/WX    TMP DP  RH WIND       PRES   REMARKS
CHANUTE        FOG       37  37 100 S18       29.82S VSB 3/4 WCI  27
6HR MIN TEMP:  34; 6HR MAX TEMP:  37;

COFFEYVILLE    CLOUDY    37  37 100 S15       29.87F FOG     WCI  28
6HR MIN TEMP:  35; 6HR MAX TEMP:  37;

HUTCHINSON     MOCLDY    38  33  82 SW20G28   29.70F WCI  28
6HR MIN TEMP:  32; 6HR MAX TEMP:  38;

NEWTON         CLOUDY    36  30  80 SW28G36   29.71F WCI  23
PARSONS        CLOUDY    37  37 100 S14       29.86F FOG     WCI  28
6HR MIN TEMP:  35; 6HR MAX TEMP:  37;

WICHITA INTL   CLOUDY    36  34  92 S20G31    29.76R WCI  25
6HR MIN TEMP:  33; 6HR MAX TEMP:  37;

WICHITA JABRA  CLOUDY    37  35  92 SW28G40   29.74R WCI  25
6HR MIN TEMP:  32; 6HR MAX TEMP:  37;

WINFIELD       CLOUDY    39  37  92 S22G31    29.83S WCI  29
6HR MIN TEMP:  35; 6HR MAX TEMP:  39;

$$

KSZ007>012-019>026-033>040-048>060-102>105-031300-
NORTHEAST KANSAS

CITY           SKY/WX    TMP DP  RH WIND       PRES   REMARKS
CONCORDIA      MOCLDY    34  31  88 SW10      29.63S WCI  26
6HR MIN TEMP:  31; 6HR MAX TEMP:  34;

EMPORIA        CLOUDY    37  36  96 S26G38    29.69F FOG     WCI  25
6HR MIN TEMP:  32; 6HR MAX TEMP:  37;

LAWRENCE       CLOUDY    37  35  92 W7G17     29.77R
6HR MIN TEMP:  33; 6HR MAX TEMP:  37;

MANHATTAN      CLOUDY    39  35  86 SW18G24   29.69F WCI  30
6HR MIN TEMP:  33; 6HR MAX TEMP:  39;

OLATHE IND     CLOUDY    36  35  96 S21G30    29.72F FOG     WCI  25
6HR MIN TEMP:  32; 6HR MAX TEMP:  36;

OLATHE EXE     CLOUDY    36  35  96 S17G25    29.72F FOG     WCI  26
6HR MIN TEMP:  32; 6HR MAX TEMP:  36;

SALINA         PTCLDY    39  32  76 SW18      29.68R WCI  30
6HR MIN TEMP:  33; 6HR MAX TEMP:  39;

TOPEKA BILLARD CLOUDY    38  35  89 SW10      29.74R WCI  31
6HR MIN TEMP:  34; 6HR MAX TEMP:  38;

TOPEKA FORBES  CLOUDY    38  36  92 SW12G26   29.74R WCI  30
6HR MIN TEMP:  34; 6HR MAX TEMP:  38;

$$



USA.gov is the U.S. government's official web portal to all federal, state and local government web resources and services.